Notices

What's New in latest Release from April 7th, 2021:

- Updated Glossary, including Speed of Maximum Gust, and Total Hourly Precipitation

- Updated national and regional climate services offices contacts and prices information

- Addition of station inventory lists for 1981-2010, 1971-2000, and 1961-1990 Normals.

If you haven't already, please take our survey and provide feedback about our website: https://eccc.sondage-survey.ca/f/LanguageSelection.aspx?s=442ca660-fcf1-47c0-95a9-59707d6fd709

Hourly Data Report for March 08, 2010

HALIFAX STANFIELD INT'L A
NOVA SCOTIA

44°52'48.060" N
63°30'00.050" W
145.40 m
8202250
71395
YHZ

Download Data

Hourly Data (March 2010)
Hourly Data Report for March 8, 2010
TIME
LST
Temp Definition
°C
Dew Point Definition
°C
Rel Hum Definition
%
Precip. Amount Definition
mm

Wind Dir Definition
10's deg

Wind Spd Definition
km/h
Visibility Definition
km
Stn Press Definition
kPa
Hmdx Definition


Wind Chill Definition


Weather Definition


00:00 -1.5 -5.5 74   22 11 24.1 98.68   -5 Clear
01:00 -1.8 -5.4 76   20 13 24.1 98.63   -6 Clear
02:00 -1.5 -5.3 75   21 19 24.1 98.58   -7 Clear
03:00 -1.2 -5.3 74   21 19 24.1 98.50   -7 Mainly Clear
04:00 -1.5 -5.3 75   21 19 24.1 98.47   -7 Mainly Clear
05:00 -1.9 -5.2 78   21 15 24.1 98.43   -7 Mainly Clear
06:00 -2.2 -5.2 80   21 15 24.1 98.44   -7 Mainly Clear
07:00 -1.8 -4.6 81   23 13 24.1 98.42   -6 Mostly Cloudy
08:00 1.4 -2.9 73   26 19 24.1 98.40     Cloudy
09:00 2.8 -2.1 70   26 17 24.1 98.39     Mostly Cloudy
10:00 5.0 -1.2 64   28 15 24.1 98.39     Mostly Cloudy
11:00 6.0 -1.6 58   28 15 24.1 98.32     Mostly Cloudy
12:00 6.8 -1.8 54   29 22 24.1 98.26     Mostly Cloudy
13:00 7.3 -3.5 46   30 24 24.1 98.22     Mainly Clear
14:00 7.2 -4.6 43   32 22 24.1 98.16     Mainly Clear
15:00 8.1 -5.0 39   28 28 24.1 98.11     Mainly Clear
16:00 8.6 -4.2 40   29 22 24.1 98.06     Mainly Clear
17:00 6.9 -4.2 45   30 26 24.1 98.07     Mainly Clear
18:00 5.3 -4.3 50   29 19 24.1 98.11     Mainly Clear
19:00 3.0 -4.7 57   27 6 24.1 98.14     Mainly Clear
20:00 1.0 -4.6 66   26 11 24.1 98.13     Mainly Clear
21:00 3.1 -2.7 66   27 9 24.1 98.20     Cloudy
22:00 2.5 -1.4 75   35 17 24.1 98.21     Cloudy
23:00 1.0 -1.2 85   33 13 24.1 98.29     Mainly Clear

Notes on Data Quality.

Legend

  • E = Estimated
  • M = Missing
  • NA = Not Available*
  • [empty] = Indicates an unobserved value
Date modified: